2017-071N

Last updated on Wed Feb 14 2018 16:20:55 GMT+0000 (Coordinated Universal Time)

1 43049U 17071N 18045.21109178 .00002409 00000-0 73417-4 0 9994 2 43049 51.6393 280.1537 0002711 183.9405 176.1558 15.38156747 10636

Satellite not in orbit

2017-071N